[TLELIST] Archives

 

[list_settings.list_name] Current TLEs

December 1st 2011 PST

HST 1 20580U 90037B 11334.28561260 .00002755 00000-0 19325-3 0 8975 2 20580 028.4706 011.1537 0003365 094.4571 265.6466 15.01902394984649 ISS (ZARYA) 1 25544U 98067A 11334.49872446 .00002399 00000-0 36383-4 0 5295 2 25544 051.6440 043.9004 0029933 108.5392 029.7339 15.58961447746871 CXO 1 25867U 99040B 11335.58333333 -.00000523 00000-0 00000+0 0 6733 2 25867 070.7150 019.7637 8725163 277.4919 358.2684 00.37805870 8400 ____________________________________________________________________ These 2-Line ...Continue Reading

[list_settings.list_name] Current TLEs

November 30th 2011 PST

HST 1 20580U 90037B 11333.28883287 .00002816 00000-0 19783-3 0 8965 2 20580 028.4704 017.6680 0003486 079.8277 280.2344 15.01897025984496 ISS (ZARYA) 1 25544U 98067A 11333.40174103 .00002388 00000-0 36383-4 0 5243 2 25544 051.6414 049.4084 0030730 103.9168 353.8932 15.58839798746703 CXO 1 25867U 99040B 11332.91666667 -.00000504 00000-0 00000+0 0 6724 2 25867 070.6952 019.9432 8724368 277.4687 355.3182 00.37804397 8394 ____________________________________________________________________ These 2-Line ...Continue Reading

[list_settings.list_name] Current TLEs

November 29th 2011 PST

HST 1 20580U 90037B 11331.29528001 .00003398 00000-0 24132-3 0 8953 2 20580 028.4706 030.7027 0003373 062.5805 297.5054 15.01889630984199 ISS (ZARYA) 1 25544U 98067A 11332.45434028 .00024220 00000-0 30643-3 0 5186 2 25544 051.6431 054.1581 0030850 101.0822 076.5603 15.58807001746555 CXO 1 25867U 99040B 11332.91666667 -.00000504 00000-0 00000+0 0 6724 2 25867 070.6952 019.9432 8724368 277.4687 355.3182 00.37804397 8394 ____________________________________________________________________ These 2-Line ...Continue Reading

[list_settings.list_name] Current TLEs

November 28th 2011 PST

HST 1 20580U 90037B 11331.29528001 .00003398 00000-0 24132-3 0 8953 2 20580 028.4706 030.7027 0003373 062.5805 297.5054 15.01889630984199 ISS (ZARYA) 1 25544U 98067A 11331.41356600 .00023972 00000-0 30394-3 0 5131 2 25544 051.6424 059.3831 0030913 097.2250 356.1055 15.58754553746396 CXO 1 25867U 99040B 11332.91666667 -.00000504 00000-0 00000+0 0 6724 2 25867 070.6952 019.9432 8724368 277.4687 355.3182 00.37804397 8394 ____________________________________________________________________ These 2-Line ...Continue Reading

[list_settings.list_name] Current TLEs

November 27th 2011 PST

HST 1 20580U 90037B 11330.29849794 .00003476 00000-0 24722-3 0 8948 2 20580 028.4707 037.2200 0003253 052.9678 307.1201 15.01883931984047 ISS (ZARYA) 1 25544U 98067A 11330.45262193 .00012457 00000-0 16186-3 0 5079 2 25544 051.6440 064.2096 0030672 093.2181 004.2374 15.58692953746247 CXO 1 25867U 99040B 11330.29166667 -.00000597 00000-0 00000+0 0 6719 2 25867 070.6755 020.1253 8723300 277.4384 358.0672 00.37807705 8388 ____________________________________________________________________ These 2-Line ...Continue Reading

[list_settings.list_name] Current TLEs

November 26th 2011 PST

HST 1 20580U 90037B 11328.63717918 .00003484 00000-0 24790-3 0 8938 2 20580 028.4709 048.0757 0003427 034.0326 326.0183 15.01873175983799 ISS (ZARYA) 1 25544U 98067A 11329.41727170 .00024349 00000-0 30978-3 0 5005 2 25544 051.6429 069.4065 0030834 089.9969 313.9857 15.58657083746086 CXO 1 25867U 99040B 11330.29166667 -.00000597 00000-0 00000+0 0 6719 2 25867 070.6755 020.1253 8723300 277.4384 358.0672 00.37807705 8388 ____________________________________________________________________ These 2-Line ...Continue Reading

[list_settings.list_name] Current TLEs

November 25th 2011 PST

HST 1 20580U 90037B 11326.31132196 .00003790 00000-0 27084-3 0 8928 2 20580 028.4700 063.2810 0003036 006.5468 353.5081 15.01859302983446 ISS (ZARYA) 1 25544U 98067A 11328.40286919 .00033453 00000-0 42374-3 0 4934 2 25544 051.6438 074.5032 0030780 086.4708 021.8283 15.58589332745921 CXO 1 25867U 99040B 11330.29166667 -.00000597 00000-0 00000+0 0 6719 2 25867 070.6755 020.1253 8723300 277.4384 358.0672 00.37807705 8388 ____________________________________________________________________ These 2-Line ...Continue Reading

[list_settings.list_name] Current TLEs

November 24th 2011 PST

HST 1 20580U 90037B 11326.31132196 .00003790 00000-0 27084-3 0 8928 2 20580 028.4700 063.2810 0003036 006.5468 353.5081 15.01859302983446 ISS (ZARYA) 1 25544U 98067A 11326.86086963 .00030439 00000-0 38711-3 0 4839 2 25544 051.6432 082.2312 0031297 080.9301 009.6667 15.58514919745686 CXO 1 25867U 99040B 11327.62500000 -.00000500 00000-0 00000+0 0 6708 2 25867 070.6515 020.3453 8719812 277.3984 355.1526 00.37809175 8372 ____________________________________________________________________ These 2-Line ...Continue Reading

[list_settings.list_name] Current TLEs

November 23rd 2011 PST

HST 1 20580U 90037B 11326.31132196 .00003790 00000-0 27084-3 0 8928 2 20580 028.4700 063.2810 0003036 006.5468 353.5081 15.01859302983446 ISS (ZARYA) 1 25544U 98067A 11326.46805942 .00028247 00000-0 36056-3 0 4790 2 25544 051.6420 084.2035 0030787 079.9749 325.2096 15.58479555745627 CXO 1 25867U 99040B 11327.62500000 -.00000500 00000-0 00000+0 0 6708 2 25867 070.6515 020.3453 8719812 277.3984 355.1526 00.37809175 8372 ____________________________________________________________________ These 2-Line ...Continue Reading

[list_settings.list_name] Current TLEs

November 22nd 2011 PST

HST 1 20580U 90037B 11324.71643569 .00003868 00000-0 27677-3 0 8914 2 20580 028.4696 073.7054 0003038 348.1091 011.9461 15.01848383983203 ISS (ZARYA) 1 25544U 98067A 11325.51477506 .00026894 00000-0 34443-3 0 4723 2 25544 051.6418 088.9886 0030826 076.7153 016.5670 15.58420198745477 CXO 1 25867U 99040B 11325.00000000 -.00000188 00000-0 00000+0 0 6693 2 25867 070.6266 020.5387 8714731 277.3886 357.8251 00.37806598 8368 ____________________________________________________________________ These 2-Line ...Continue Reading
  • This mailing list is a public mailing list - anyone may join or leave, at any time.
  • This mailing list is announce-only.

International Space Station (ISS) / Hubble Space Telescope (HST) / Chandra X-Ray Observatory Orbital Data via EMAIL

Privacy Policy:

Private list